www.pogodaiklimat.ru

Погода и климат >> Архив погоды >> Россия >> Калининградская область >> Советск


ПОГОДА в Советске

  • Прогноз погоды в Советске
  • Монитор погоды в Советске

АРХИВ ПОГОДЫ в Советске

Время (UTC), дата Ветер
(напр.,м/с)
 
Видим.   Явления Облачность Т
(С)
Тd
(С)
f
(%)
Тe
(С)
Тes
(С)
Комфортность P
(гПа)
Po
(гПа)
Тmin
(С)
Tmax
(С)
R
(мм)
R24
(мм)
S
(см)
15 14.08 СЗ 3-5
{5}
20 км 9/9 600 м
[Sc]
+18.4 +10.9 62 +19 +19 1013.9 1009.5
18 14.08 З 1-3
{7}
20 км 3/3 600 м
[Sc]
+15.4 +10.0 70 +16 +16 1014.4 1010.0 +19.2
21 14.08 Ю 3-3
{3}
20 км 3/3 600 м
[Sc]
+11.2 +9.8 91 +9 +9 1014.8 1010.3
00 15.08 ЮЗ 3-5
{6}
20 км 3/3 600 м
[Sc]
+12.2 +9.9 86 +11 +11 1014.8 1010.3
03 15.08 Ю 4-5
{5}
20 км 1/1 600 м
[Sc]
+9.4 +8.5 94 +6 +6 1015.0 1010.5 +9.3
06 15.08 ЮЗ 2-4
{6}
20 км 6/6 600 м
[Sc]
+14.2 +11.6 84 +14 +15 1015.7 1011.2 +9.2
09 15.08 З 4-9
{9}
20 км 8/8 600 м
[Sc]
+18.9 +11.3 61 +20 +21 1016.0 1011.6
12 15.08 З 2-4
{7}
20 км 8/8 600 м
[Sc]
+18.3 +10.3 60 +19 +21 1015.9 1011.5
15 15.08 С 1-3
{5}
20 км 6/6 600 м
[Sc diur, vesp]
+20.5 +11.3 56 +23 +25 комфорт 1015.3 1010.9
18 15.08 штиль 0-1
{3}
20 км 4/0
[Ac trans]
+15.7 +11.1 74 +16 +16 1015.5 1011.1 +21.2
21 15.08 ЮВ 1-2
{2}
20 км ясно +12.5 +9.9 84 +13 +13 1016.0 1011.5
00 16.08 ЮВ 1-2
{3}
20 км 3/0
[Ac trans]
+12.6 +9.7 82 +13 +13 1015.6 1011.1
03 16.08 ЮВ 1-2
{3}
20 км 6/6 600 м
[Sc]
+12.2 +9.4 83 +12 +12 1015.3 1010.8 +11.9
06 16.08 Ю 3-5
{5}
20 км 8/0
[Ac trans]
+16.2 +10.2 68 +16 +17 1015.2 1010.8 +11.5
09 16.08 Ю 3-6
{6}
20 км 6/0
[Ac trans]
+23.1 +9.6 42 +25 +30 комфорт 1014.9 1010.6
12 16.08 Ю 3-5
{7}
20 км 8/8 600 м
[Cu med, cong]
+24.0 +9.6 40 +25 +27 комфорт 1014.6 1010.3
15 16.08 ЮЗ 2-4
{7}
20 км 8/8 600 м
[Sc]
+24.2 +10.0 41 +25 +26 комфорт 1014.4 1010.1
18 16.08 штиль 0
{3}
20 км 8/8 600 м
[Sc]
+19.6 +14.0 70 +21 +21 комфорт 1015.0 1010.5 +26.0
21 16.08 ЮВ 1-2
{2}
20 км 6/6 600 м
[Sc]
+16.6 +11.4 71 +17 +17 1015.5 1011.1
00 17.08 Ю 2-4
{4}
20 км 6/6 600 м
[Sc]
+15.2 +9.3 68 +15 +15 1015.2 1010.8
03 17.08 Ю 2-3
{5}
20 км 8/8 600 м
[Sc]
+13.9 +10.0 77 +13 +13 1015.4 1010.9 +13.7
06 17.08 Ю 2-3
{3}
20 км 9/9 600 м
[Sc]
+15.5 +12.0 80 +15 +16 1015.6 1011.2 +13.7
09 17.08 Ю 2-3
{4}
20 км 8/8 600 м
[Sc]
+22.1 +15.1 65 +26 +28 душно 1015.2 1010.9
12 17.08 Ю 2-4
{5}
20 км 8/8 600 м
[Sc]
+23.7 +13.9 54 +26 +28 жарко 1014.3 1010.0
15 17.08 ЮЗ 1-2
{5}
20 км 9/9 600 м
[Sc]
+23.4 +14.0 56 +27 +27 душно 1013.2 1008.9
18 17.08 СВ 1-2
{3}
20 км 6/6 600 м
[Sc]
+19.9 +14.6 72 +23 +23 комфорт 1013.2 1008.8 +26.0
21 17.08 ЮВ 1-1
{2}
20 км 4/4 600 м
[Sc]
+16.6 +14.4 87 +17 +17 1012.8 1008.4
00 18.08 Ю 1-2
{3}
20 км 10/10 600 м
[Sc]
+17.0 +13.7 81 +18 +18 1012.4 1007.9
03 18.08 Ю 2-3
{3}
20 км 8/8 600 м
[Sc]
+14.7 +12.8 88 +14 +14 1011.5 1007.1 +14.7
06 18.08 Ю 2-3
{4}
20 км 4/4 600 м
[Sc]
+19.5 +14.3 72 +22 +24 комфорт 1011.0 1006.6 +14.6
09 18.08 Ю 3-5
{6}
20 км 3/0
[Ci fib]
+24.8 +13.4 49 +27 +35 жарко 1010.6 1006.3
12 18.08 Ю 4-7
{8}
20 км 4/4 600 м
[Cu hum]
+26.6 +12.4 41 +28 +32 жарко 1010.0 1005.8
15 18.08 Ю 2-4
{7}
20 км 6/0
[Ac trans]
+26.0 +12.9 44 +28 +30 жарко 1009.4 1005.1
18 18.08 ЮВ 2-3
{5}
20 км 10/10 600 м
[Sc]
+22.7 +13.4 56 +26 +26 жарко 1008.7 1004.4 +27.4
21 18.08 Ю 2-4
{7}
20 км 10/10 600 м
[Sc]
+22.2 +12.9 56 +25 +25 комфорт 1007.8 1003.5
00 19.08 Ю 2-4
{6}
20 км 9/9 600 м
[Sc]
+20.7 +14.0 65 +24 +24 комфорт 1007.5 1003.2
03 19.08 Ю 3-4
{5}
20 км 3/3 600 м
[Sc]
+17.1 +14.2 83 +17 +17 1009.1 1004.7 +17.0
06 19.08 З 2-5
{5}
20 км 8/8 600 м
[Sc]
+21.1 +16.5 75 +25 +25 комфорт 1010.6 1006.3 +16.6
09 19.08 З 4-6
{7}
20 км 8/8 600 м
[Sc]
+21.5 +15.8 70 +25 +26 комфорт 1012.9 1008.6
12 19.08 З 4-8
{8}
20 км 8/8 600 м
[Sc]
+22.1 +15.1 65 +26 +27 душно 1015.2 1010.9
15 19.08 З 2-4
{6}
20 км 8/8 600 м
[Sc]
+19.9 +14.2 70 +23 +23 комфорт 1016.7 1012.2
18 19.08 СЗ 1-1
{4}
20 км 8/8 600 м
[Sc]
+17.9 +15.0 83 +19 +19 1017.1 1012.7 +23.1
21 19.08 Ю 2-2
{2}
20 км 6/6 600 м
[Sc]
+15.2 +14.5 96 +15 +15 1018.2 1013.8
00 20.08 Ю 2-2
{2}
20 км 3/3 600 м
[Sc]
+14.3 +13.7 96 +14 +14 1019.2 1014.7
03 20.08 Ю 2-4
{4}
20 км 4/4 600 м
[Sc]
+13.9 +13.4 97 +13 +13 1020.2 1015.7 +13.3
06 20.08 штиль 0-2
{3}
10 км 6/0
[Ac trans]
+18.2 +15.7 85 +18 +21 1021.3 1016.9 +13.3
09 20.08 ЮЗ 2-3
{4}
20 км 9/9 600 м
[Sc]
+20.5 +16.4 77 +24 +25 комфорт 1022.2 1017.8
12 20.08 С 2-4
{4}
20 км 8/8 600 м
[Sc]
+22.0 +14.8 64 +25 +28 комфорт 1022.6 1018.2
15 20.08 СЗ 3-4
{5}
20 км 8/0 2000 м
[Ac trans]
+22.5 +10.3 46 +24 +26 комфорт 1023.0 1018.6
18 20.08 СЗ 2-2
{4}
20 км 8/0
[Ac trans]
+18.6 +11.4 63 +20 +20 1023.7 1019.3 +23.0
21 20.08 СВ 1-1
{2}
20 км 8/0
[Ac trans]
+15.4 +11.5 78 +16 +16 1023.9 1019.4
00 21.08 ЮВ 2-2
{2}
20 км 9/9 600 м
[Sc]
+14.8 +11.9 83 +14 +14 1023.2 1018.7
03 21.08 С 2-2
{3}
20 км 10/10 600 м
[Sc]
+14.9 +11.9 82 +15 +15 1023.4 1018.9 +14.6
06 21.08 С 2-3
{4}
20 км ливневой дождь 10/10 300 м
[Cb cap]
+14.2 +12.7 91 +14 +14 1023.3 1018.8 +13.7 3
09 21.08 С 3-5
{6}
20 км {ливн. осадки} 10/10 600 м
[Sc]
+15.4 +12.4 82 +15 +15 1023.2 1018.7
12 21.08 С 2-3
{6}
20 км в посл. час ливневой дождь 10/10 600 м
[Sc]
+17.2 +13.3 78 +18 +18 1024.0 1019.6

 

Местоположение метеостанции Советск (Калининградская область, Россия): широта 55.08 долгота 21.93 высота над уровнем моря 36 м.

В архиве по умолчанию представлена погода в Советске за последнюю неделю. Архивные данные за месяц целиком и за предыдущие месяцы, начиная с января 2011 года, Вы можете получить, выбрав интересующий диапазон дат из раскрывающегося списка и нажав кнопку "Ввод!".


*Определитесь, кто Вы:
робот инопланетянин человек

Внимание! Время в таблицах - всемирное. Для получения местного времени необходимо прибавить поправку, которая равна 2 ч.

Смотрите также архив погоды в соседних городах и на ближайших метеорологических станциях:

Погода в Шилуте (Литва) (43 км)
Погода в Черняховске (Калининградская область, Россия) (51 км)
Погода в Лаукуве (Литва) (63 км)
Погода в Ниде (Литва) (64 км)
Погода в Рыбачем (Калининградская область, Россия) (70 км)
Погода в Кибартае (Литва) (74 км)
Погода в Расейняе (Литва) (85 км)
Погода в Виштынце (Калининградская область, Россия) (88 км)
Погода в Железнодорожном (Калининградская область, Россия) (89 км)
Погода в Kлайпеде (Литва) (90 км)

Пояснения к столбцам:

Ветер - указаны скорость ветра в м/с - средняя за 10 мин, порывы в срок и между сроками (в фигурных скобках) и направление, откуда дует ветер: С - северный, СВ - северо-восточный, В - восточный, ЮВ - юго-восточный, Ю - южный, ЮЗ - юго-западный, З - западный, СЗ - северо-западный.
Видимость - горизонтальная дальность видимости в метрах или километрах. При видимости от 1 до 10 км при отсутствии осадков обычно наблюдается дымка, при ухудшении видимости до 1 км и менее - туман. В сухую погоду видимость может ухудшаться дымом, пылью или мглою.
Явления - указаны атмосферные явления, наблюдавшиеся в срок или в последний час перед сроком; фигурными скобками обозначены явления, наблюдавшиеся между сроками (за 1-3 часа до срока); квадратными скобками обозначены град или гололедные отложения с указанием их диаметра в мм.
Облачность - указаны через наклонную черту общая и нижняя облачность в баллах и высота нижней границы облаков в метрах; квадратными скобками обозначены формы облаков: Ci - перистые, Cs - перисто-слоистые, Cc - перисто-кучевые, Ac - высококучевые, As - высокослоистые, Sc - слоисто-кучевые, Ns - слоисто-дождевые, Cu - кучевые, Cb - кучево-дождевые. Подробнее классификацию облаков см. в Атласе облаков (PDF).
T - Температура воздуха - температура, измеренная на высоте 2 м над землей.
Td - Температура точки росы - температура, при понижении до которой содержащийся в воздухе водяной пар достигнет насыщения.
f - Относительная влажность воздуха - влажноcть воздуха, измеренная на высоте 2 м над землей.
Te - Эффективная температура - температура, которую ощущает одетый по сезону человек в тени. Характеристика душности погоды. При расчете учитывается влияние влажности воздуха и скорости ветра на теплоощущения человека.
Tes - Эффективная температура на солнце - температура, которую ощущает человек, с поправкой на солнечный нагрев. Характеристика знойности погоды. Зависит от высоты солнца над горизонтом, облачности и скорости ветра. Ночью, в пасмурную погоду, а также при ветре 12 м/с и более поправка равна нулю.
P - Атмосферное давление - приведенное к уровню моря атмосферное давление.
Po - Атмосферное давление - измеренное на уровне метеостанции атмосферное давление.
Tmin - Минимальная температура - минимум температуры воздуха на высоте 2 м над землей.
Tmax - Максимальная температура - максимум температуры воздуха на высоте 2 м над землей.
R - Количество осадков - Количество выпавших осадков за период времени, мм. При наведении курсора мыши на число - период времени, за который выпало указанное количество осадков.
R24 - Количество осадков - Количество выпавших осадков за 24 часа, мм.
S - Снежный покров - Высота снежного покрова, см. При наведении курсора мыши на число - состояние снежного покрова и степень покрытия местности в баллах.